Location: ActonStarParty
(42.4766°N, 71.4538°W)
Time: 05:04:56
(UTC-04:00)

Cosmos 1300 - Visible Passes

Search period start: 29 June 2016 00:00
Search period end: 09 July 2016 00:00
Orbit: 516 x 519 km, 82.5° (Epoch: 28 June)

Date Brightness Start Highest point End Pass type
(mag) Time Alt. Az. Time Alt. Az. Time Alt. Az.
29 Jun 3.2 21:21:45 10° N 21:25:28 45° ENE 21:28:45 12° SSE visible
29 Jun 5.5 22:59:15 10° WNW 23:00:46 12° W 23:02:17 10° WSW visible
30 Jun 3.4 21:07:23 10° N 21:10:59 37° ENE 21:14:35 10° SSE visible
30 Jun 5.4 22:44:16 10° NW 22:46:22 14° W 22:48:30 10° WSW visible
01 Jul 5.3 22:29:27 10° NW 22:32:00 17° W 22:34:31 10° SW visible
02 Jul 5.1 22:14:44 10° NW 22:17:36 20° W 22:20:27 10° SW visible
03 Jul 4.8 22:00:04 10° NW 22:03:12 24° W 22:06:19 10° SW visible
04 Jul 4.6 21:45:27 10° NNW 21:48:48 28° W 21:52:07 10° SSW visible
05 Jul 4.3 21:30:52 10° NNW 21:34:23 34° W 21:37:52 10° SSW visible
06 Jul 4.0 21:16:19 10° NNW 21:19:57 41° W 21:23:34 10° SSW visible
07 Jul 3.6 21:01:47 10° NNW 21:05:32 50° W 21:09:15 10° S visible
